[[{"header":{"parameterUnit":"m.s-1","parameterCategory":1,"la1":30.2991,"la2":30.254,"lo1":-89.0895,"lo2":-89.0444,"dx":0.0017,"dy":0.0017,"nx":28,"ny":28,"refTime":"2022-11-12T09:00:00:Z","depth":0,"parameterNumber":2,"parameterNumberName":"U-component_of_WINDS"},"data":[0,0,0,0,0,0,0,0,0,0,0,0,0,0,0,0,0,0,0,0,0,0,0,0,0,0,0,0,0,0,0,0,0,0,0,0,0,0,0,0,0,0,0,0,0,0,0,0,0,0,0,0,0,0,0,0,0,0,0.4536,0.4535,0,0.4495,0.4495,0.4494,0.4499,0.45,0.4501,0.4501,0.4457,0.4455,0.4453,0,0,0,0,0,0,0,0,0,0,0,0,0,0.4617,0.4615,0.4536,0.4535,0.4535,0.4495,0.4495,0.4494,0.4499,0.45,0.4501,0.4502,0.4458,0.4455,0.4453,0,0,0,0,0,0,0,0,0,0,0,0,0,0.4579,0.4615,0.4536,0.4533,0.4532,0.4495,0.4495,0.4494,0.4499,0.45,0.4501,0.4502,0.4458,0.4456,0.4453,0.4416,0,0,0.4445,0.4443,0,0,0,0,0,0,0,0,0.4582,0.4576,0.4534,0.4533,0.4532,0.4504,0.4507,0.4468,0.4499,0.4512,0.4501,0.4503,0.4471,0.4468,0.4458,0.4414,0.4412,0.4444,0.4443,0.4442,0.4441,0,0,0,0,0,0,0,0.4584,0.4578,0.452,0.4533,0.4532,0.4533,0.4529,0.4499,0.4486,0.4511,0.4511,0.4506,0.4471,0.446,0.4457,0.4411,0.4444,0.4442,0.444,0.4439,0.4335,0.4334,0,0,0,0,0,0,0.4588,0.458,0.4521,0.4518,0.456,0.4531,0.4526,0.4512,0.4487,0.4484,0.4505,0.4507,0.4464,0.446,0.4455,0.441,0.4442,0.4439,0.4437,0.4336,0.4335,0.4334,0,0,0,0,0,0,0.459,0.4583,0.4523,0.455,0.4542,0.4528,0.4512,0.451,0.4499,0.4483,0.448,0.4497,0.4465,0.4459,0.4426,0.4409,0.4438,0.4435,0.4338,0.4336,0.4335,0.4319,0,0,0,0,0,0,0.4592,0.4583,0.4569,0.4549,0.4541,0.4494,0.4511,0.4509,0.4495,0.4496,0.4474,0.4471,0.4465,0.443,0.4423,0.4405,0.4433,0.4339,0.4337,0.4335,0.4321,0.4317,0.4314,0,0,0,0,0,0.4595,0.4566,0.4568,0.4561,0.4523,0.4493,0.4488,0.4483,0.4494,0.4479,0.4469,0.4472,0.4412,0.4426,0.4419,0.44,0.434,0.4338,0.4335,0.4323,0.4318,0.4314,0,0,0,0,0,0,0.4582,0.4563,0.4566,0.4529,0.4513,0.4494,0.4476,0.4478,0.4458,0.4459,0.4453,0.4448,0.4415,0.4404,0.4421,0.4363,0.4378,0.4373,0.4371,0.4366,0.4363,0.4365,0.4431,0,0,0,0,0,0.4576,0.4554,0.4538,0.4508,0.4499,0.4489,0.4476,0.4474,0.4456,0.4449,0.4436,0.4418,0.4396,0.4381,0.4359,0.4321,0.4316,0.4304,0.43,0.4298,0.4293,0.4273,0.4267,0.4326,0.4326,0.4326,0,0,0.4561,0.4548,0.4534,0.4505,0.4492,0.4469,0.4483,0.4458,0.4441,0.4445,0.4413,0.4403,0.4383,0.4347,0.4331,0.4338,0.4277,0.4294,0.4292,0.4289,0.427,0.4264,0.4259,0.4324,0.4324,0.4324,0,0,0.4522,0.4511,0.4484,0.4471,0.4452,0.4446,0.444,0.4421,0.4415,0.4383,0.4386,0.4365,0.4326,0.4312,0.43,0.4258,0.426,0.4251,0.4231,0.4211,0.4207,0.4203,0.4187,0.4182,0.4248,0.4248,0.4248,0,0.4506,0.4472,0.447,0.4445,0.4432,0.4436,0.4409,0.4397,0.4371,0.4362,0.437,0.4322,0.4309,0.427,0.426,0.425,0.4242,0.4253,0.4208,0.4204,0.42,0.4185,0.4179,0.4247,0.4247,0.4247,0.4247,0,0.4453,0.443,0.4411,0.4387,0.4372,0.4346,0.4339,0.4325,0.4324,0.4317,0.4285,0.427,0.4245,0.4236,0.4235,0.4198,0.4202,0.4209,0.4223,0.4193,0.4179,0.4174,0.4245,0.4245,0.4246,0.4246,0,0,0.4403,0.438,0.4373,0.4363,0.4343,0.4325,0.43,0.4277,0.4264,0.4247,0.4225,0.4193,0.42,0.4186,0.4184,0.4166,0.4134,0.4175,0.4175,0.4167,0.4091,0.4085,0.4079,0.4136,0.4135,0.4134,0.4093,0,0.4362,0.4318,0.4315,0.4275,0.4253,0.4258,0.4236,0.4222,0.4215,0.4195,0.4188,0.4165,0.4176,0.4168,0.4151,0.4141,0.4118,0.4145,0.4115,0.4114,0.4118,0.4072,0.4065,0.4026,0.4088,0.4087,0.4086,0,0.4307,0.429,0.4247,0.4232,0.4223,0.4203,0.4182,0.4164,0.4148,0.4144,0.413,0.413,0.4104,0.4121,0.4085,0.4103,0.4091,0.4085,0.4083,0.4079,0.4097,0.4065,0.4014,0.4007,0.4077,0.4078,0.4079,0,0.4274,0.424,0.421,0.4202,0.4183,0.4169,0.416,0.4145,0.4132,0.4114,0.4106,0.4085,0.4073,0.4057,0.4052,0.4064,0.4015,0.4032,0.4011,0.4011,0.3999,0.3999,0.3944,0.3993,0.3994,0.3994,0.3994,0,0.4227,0.4201,0.4195,0.4177,0.4148,0.4146,0.4117,0.4109,0.4096,0.4076,0.408,0.4061,0.4056,0.4036,0.4033,0.4003,0.3998,0.3994,0.3993,0.3992,0.3993,0.3983,0.3985,0.3992,0.3992,0.3993,0.3993,0,0.4184,0.4179,0.4147,0.4133,0.4129,0.4108,0.4096,0.4078,0.4073,0.4048,0.4042,0.4033,0.401,0.4004,0.3976,0.3974,0.3939,0.3941,0.3944,0.3944,0.3923,0.3925,0.3858,0.3849,0.3906,0.3906,0.3905,0,0.4154,0.4134,0.4118,0.4106,0.4097,0.4076,0.4063,0.4061,0.4047,0.4029,0.4013,0.3991,0.3973,0.3936,0.3927,0.3906,0.3907,0.3885,0.3904,0.3904,0.3906,0.3906,0.3904,0.3881,0.388,0.388,0.388,0,0.41,0.4099,0.4081,0.4062,0.4047,0.4031,0.4017,0.4006,0.4002,0.3987,0.3964,0.395,0.3923,0.3901,0.388,0.3871,0.3874,0.3874,0.3868,0.3867,0.3869,0.3867,0.3933,0.3875,0.3876,0.3876,0.3876,0.3876,0.4062,0.4044,0.4031,0.4011,0.4,0.3987,0.397,0.3963,0.3944,0.3922,0.3923,0.3898,0.3883,0.3856,0.3846,0.3826,0.3833,0.3824,0.3822,0.3819,0.3817,0.3874,0.3823,0.3823,0.3823,0.3823,0.3823,0,0.4007,0.4,0.3981,0.3961,0.3945,0.3952,0.3937,0.3923,0.3901,0.3888,0.3871,0.3845,0.3824,0.3814,0.3793,0.378,0.3781,0.3774,0.3774,0.3772,0.3813,0.382,0.3774,0.3774,0.3774,0.3774,0.3774,0.3774,0.3977,0.3949,0.3946,0.3913,0.3905,0.3881,0.3872,0.386,0.3849,0.3821,0.3804,0.3798,0.3786,0.3765,0.3746,0.3744,0.3735,0.3728,0.3726,0.3764,0.3769,0.3774,0.378,0.3726,0.3726,0.3687,0.3686,0.3686]},{"header":{"parameterUnit":"m.s-1","parameterCategory":1,"la1":30.2991,"la2":30.254,"lo1":-89.0895,"lo2":-89.0444,"dx":0.0017,"dy":0.0017,"nx":28,"ny":28,"refTime":"2022-11-12T09:00:00:Z","depth":0,"parameterNumber":3,"parameterNumberName":"V-component_of_WINDS"},"data":[0,0,0,0,0,0,0,0,0,0,0,0,0,0,0,0,0,0,0,0,0,0,0,0,0,0,0,0,0,0,0,0,0,0,0,0,0,0,0,0,0,0,0,0,0,0,0,0,0,0,0,0,0,0,0,0,0,0,-8.4894,-8.4896,0,-8.5051,-8.5052,-8.5054,-8.4957,-8.4952,-8.4948,-8.4944,-8.5097,-8.5105,-8.5113,0,0,0,0,0,0,0,0,0,0,0,0,0,-8.4503,-8.4511,-8.4894,-8.4896,-8.4898,-8.505,-8.5052,-8.5054,-8.4958,-8.4952,-8.4947,-8.4942,-8.5094,-8.5104,-8.5114,0,0,0,0,0,0,0,0,0,0,0,0,0,-8.4668,-8.4514,-8.4893,-8.4868,-8.4867,-8.505,-8.5052,-8.5055,-8.4959,-8.4952,-8.4945,-8.4939,-8.5091,-8.5103,-8.5115,-8.5329,0,0,-8.5154,-8.5159,0,0,0,0,0,0,0,0,-8.4659,-8.4682,-8.487,-8.487,-8.487,-8.4977,-8.4971,-8.5147,-8.4961,-8.4924,-8.4944,-8.4936,-8.5062,-8.5077,-8.5121,-8.5337,-8.5343,-8.5155,-8.5162,-8.5168,-8.5171,0,0,0,0,0,0,0,-8.4647,-8.4675,-8.4955,-8.4873,-8.4873,-8.4846,-8.4862,-8.5004,-8.5029,-8.4927,-8.492,-8.494,-8.5061,-8.5109,-8.5124,-8.5345,-8.5154,-8.5165,-8.5173,-8.5178,-8.5743,-8.575,0,0,0,0,0,0,-8.4639,-8.4666,-8.495,-8.496,-8.4745,-8.4859,-8.4877,-8.495,-8.5028,-8.5033,-8.4946,-8.4935,-8.5091,-8.5109,-8.5129,-8.5384,-8.5168,-8.5179,-8.5186,-8.5736,-8.5745,-8.5753,0,0,0,0,0,0,-8.4631,-8.4665,-8.4944,-8.4812,-8.4845,-8.4873,-8.4956,-8.4956,-8.5004,-8.5042,-8.5045,-8.4991,-8.5086,-8.5111,-8.528,-8.5388,-8.5185,-8.5196,-8.5727,-8.5738,-8.5749,-8.5896,0,0,0,0,0,0,-8.462,-8.4663,-8.4746,-8.4814,-8.4853,-8.5096,-8.4962,-8.4964,-8.5027,-8.5015,-8.5085,-8.5091,-8.5083,-8.5262,-8.5293,-8.5401,-8.5206,-8.5717,-8.5732,-8.5745,-8.5882,-8.5911,-8.5936,0,0,0,0,0,-8.4607,-8.478,-8.4751,-8.4786,-8.4958,-8.5103,-8.5124,-8.5114,-8.5036,-8.5119,-8.5143,-8.5088,-8.5371,-8.5281,-8.5314,-8.5428,-8.571,-8.5728,-8.5744,-8.587,-8.5906,-8.5936,0,0,0,0,0,0,-8.4722,-8.4789,-8.4757,-8.4959,-8.5026,-8.5086,-8.519,-8.5152,-8.5241,-8.5225,-8.5206,-8.5223,-8.54,-8.543,-8.5328,-8.5638,-8.5528,-8.5553,-8.5612,-8.5646,-8.5673,-8.5662,-8.5216,0,0,0,0,0,-8.4772,-8.4886,-8.4937,-8.5109,-8.5145,-8.5163,-8.5225,-8.5212,-8.5279,-8.5307,-8.5343,-8.5409,-8.5512,-8.5581,-8.5678,-8.5886,-8.5899,-8.598,-8.6008,-8.603,-8.6051,-8.6161,-8.6198,-8.5808,-8.5808,-8.5808,0,0,-8.4874,-8.4924,-8.4997,-8.5134,-8.5185,-8.5301,-8.5187,-8.5315,-8.5401,-8.5325,-8.5488,-8.5517,-8.5589,-8.5779,-8.5864,-8.5809,-8.6161,-8.6051,-8.6069,-8.6078,-8.6183,-8.6219,-8.6252,-8.582,-8.5818,-8.5816,0,0,-8.512,-8.517,-8.5319,-8.5373,-8.5452,-8.5462,-8.5498,-8.5564,-8.5582,-8.5745,-8.5691,-8.5791,-8.597,-8.6024,-8.6074,-8.6341,-8.6293,-8.6372,-8.6514,-8.6622,-8.6653,-8.668,-8.6774,-8.6808,-8.6393,-8.6394,-8.6394,0,-8.5236,-8.5412,-8.54,-8.5534,-8.5594,-8.5534,-8.5683,-8.5735,-8.5841,-8.5883,-8.5821,-8.6045,-8.6089,-8.629,-8.6355,-8.6398,-8.6437,-8.6364,-8.665,-8.6677,-8.6702,-8.6791,-8.6827,-8.6403,-8.6402,-8.6401,-8.64,0,-8.5551,-8.5674,-8.5784,-8.5891,-8.5964,-8.6105,-8.6112,-8.6187,-8.6167,-8.6183,-8.6349,-8.64,-8.6507,-8.6553,-8.6534,-8.6751,-8.6715,-8.6652,-8.6541,-8.6749,-8.6832,-8.6866,-8.6416,-8.6413,-8.641,-8.6408,0,0,-8.5874,-8.5973,-8.6014,-8.6061,-8.6143,-8.6237,-8.6373,-8.648,-8.6544,-8.6619,-8.6732,-8.6885,-8.6828,-8.6885,-8.6871,-8.6966,-8.7173,-8.6891,-8.6893,-8.6941,-8.7413,-8.746,-8.75,-8.7142,-8.7148,-8.7153,-8.7407,0,-8.6125,-8.6367,-8.636,-8.6584,-8.6696,-8.664,-8.6759,-8.6821,-8.6839,-8.6935,-8.6954,-8.7063,-8.6979,-8.7014,-8.7105,-8.7128,-8.7267,-8.711,-8.7244,-8.7249,-8.7228,-8.7544,-8.7594,-8.7831,-8.744,-8.7445,-8.7449,0,-8.645,-8.6538,-8.6774,-8.684,-8.6886,-8.6994,-8.709,-8.7184,-8.7252,-8.7258,-8.7324,-8.7294,-8.743,-8.7316,-8.7502,-8.7395,-8.745,-8.7469,-8.7478,-8.749,-8.7362,-8.7563,-8.7906,-8.7942,-8.7501,-8.7497,-8.7493,0,-8.6661,-8.6838,-8.7002,-8.7045,-8.7126,-8.7202,-8.7239,-8.7301,-8.7365,-8.7448,-8.749,-8.7587,-8.764,-8.7715,-8.7712,-8.7629,-8.79,-8.7786,-8.7908,-8.7908,-8.7967,-8.7963,-8.8323,-8.8003,-8.8003,-8.8002,-8.8001,0,-8.6941,-8.7088,-8.7099,-8.72,-8.7361,-8.7351,-8.751,-8.7538,-8.7594,-8.7698,-8.7654,-8.7751,-8.7742,-8.7839,-8.7837,-8.7991,-8.8015,-8.8023,-8.802,-8.8027,-8.8026,-8.8062,-8.8045,-8.8011,-8.8009,-8.8008,-8.8006,0,-8.7205,-8.7218,-8.7393,-8.7456,-8.7475,-8.7591,-8.7643,-8.7738,-8.7753,-8.7884,-8.7914,-8.7937,-8.8049,-8.8054,-8.8183,-8.8181,-8.8368,-8.8348,-8.8346,-8.8342,-8.8463,-8.8452,-8.8858,-8.8911,-8.8558,-8.8561,-8.8564,0,-8.7382,-8.7494,-8.757,-8.7637,-8.7679,-8.7788,-8.7854,-8.7847,-8.7917,-8.8003,-8.8087,-8.8196,-8.8283,-8.8465,-8.8491,-8.8589,-8.857,-8.8706,-8.8584,-8.8587,-8.8571,-8.8564,-8.8575,-8.8729,-8.8733,-8.8736,-8.8739,0,-8.7697,-8.7698,-8.7796,-8.7897,-8.7978,-8.8056,-8.8128,-8.8185,-8.8187,-8.8267,-8.8383,-8.8451,-8.8583,-8.8691,-8.8787,-8.8821,-8.878,-8.8777,-8.881,-8.8818,-8.8812,-8.8816,-8.841,-8.8768,-8.8765,-8.8763,-8.8761,-8.876,-8.7922,-8.8019,-8.8087,-8.8197,-8.8252,-8.8321,-8.8413,-8.844,-8.8537,-8.8647,-8.8636,-8.8764,-8.8828,-8.8952,-8.8995,-8.9093,-8.9046,-8.9094,-8.9106,-8.9118,-8.9131,-8.8797,-8.911,-8.9109,-8.9109,-8.9108,-8.9107,0,-8.8233,-8.8275,-8.8377,-8.8481,-8.8568,-8.8524,-8.8602,-8.8676,-8.8791,-8.8855,-8.8942,-8.9075,-8.9179,-8.9214,-8.9315,-8.9387,-8.937,-8.9413,-8.9407,-8.9416,-8.9168,-8.9129,-8.9425,-8.9425,-8.9425,-8.9425,-8.9425,-8.9425,-8.8406,-8.8567,-8.8576,-8.8762,-8.8802,-8.893,-8.8978,-8.904,-8.9091,-8.9242,-8.933,-8.9353,-8.9405,-8.9509,-8.9602,-8.9609,-8.9648,-8.9699,-8.9698,-8.9465,-8.9433,-8.9403,-8.9366,-8.9707,-8.9708,-8.9938,-8.994,-8.9941]}]]